Location: Home
(42.5358°N, 72.7383°W)
Time: 12:16:56
(UTC-05:00)

A-11 Canister half - Pass Details

Date: 04 December 2021
Orbit: 1524 x 1684 km, 47.3° (Epoch: 19 January)

Event Time Altitude Azimuth Distance (km) Brightness Sun altitude
Rises 23:34:41 0° 207° (SSW) 4,901 - -69.8°
Reaches altitude 10° 23:38:04 10° 200° (SSW) 3,927 - -69.8°
Maximum altitude 23:47:13 41° 135° (SE) 2,296 - -69.8°
Drops below altitude 10° 23:56:22 10° 70° (ENE) 3,934 - -69.6°
Sets 23:59:44 0° 64° (ENE) 4,911 - -69.5°
